Location: Byszew
(52.1813°N, 19.2693°E)
Time: 14:43:28
(UTC+00:00)

Meteor 1-5 Rocket - Pass Details

Date: 03 March 2021
Orbit: 790 x 914 km, 81.2° (Epoch: 13 April)

Event Time Altitude Azimuth Distance (km) Brightness Sun altitude
Rises 18:32:08 0° 195° (SSW) 3,295 7.3 -19.9°
Reaches altitude 10° 18:34:28 10° 197° (SSW) 2,380 6.6 -20.3°
Maximum altitude 18:39:51 77° 284° (WNW) 847 4.2 -21.1°
Drops below altitude 10° 18:45:26 10° 11° (N) 2,470 6.7 -21.9°
Sets 18:47:55 0° 13° (NNE) 3,428 7.4 -22.2°
